GFSFLT2_925_temp_096.txt.gz
Temp
19 19 18 18 18 18 18 18 18 17 18 18 18 17 18 20 18 16 16 17 17 16 16 16 16 17 16 16 15 15 15 15
19 18 18 17 17 18 18 18 18 17 17 17 17 17 17 17 16 17 16 17 17 16 17 16 17 16 16 16 15 15 15 14
18 18 18 18 18 18 18 18 17 17 17 17 17 17 16 14 15 16 16 17 16 17 16 16 16 16 16 16 16 15 14 14
18 18 18 18 18 18 17 17 16 17 17 16 17 16 16 15 15 16 16 17 16 16 16 16 16 16 15 15 16 14 14 14
18 18 18 18 18 17 17 16 16 16 16 16 16 15 15 14 15 15 15 16 16 16 16 16 16 15 15 16 15 14 14 13
18 18 18 17 17 17 18 17 16 16 15 15 15 15 15 15 15 14 15 15 16 16 16 16 16 16 16 16 15 14 14 13
17 17 17 17 17 17 17 17 16 16 15 15 15 15 14 14 14 14 14 15 16 16 16 16 16 15 16 16 15 14 14 13
17 17 17 16 17 16 16 16 16 16 15 15 15 15 14 14 14 13 14 15 16 15 16 16 16 15 15 15 15 14 14 13
16 16 15 14 16 16 16 16 15 15 15 15 14 14 14 14 14 15 14 15 16 15 16 16 16 16 15 15 15 14 14 13
16 15 15 15 14 14 15 15 15 15 15 15 14 14 14 14 14 14 14 15 15 15 16 16 16 15 15 14 14 14 14 13
15 15 15 15 15 15 14 14 14 14 14 14 14 14 14 14 13 13 15 15 15 15 16 16 16 15 15 15 15 15 14 13
15 15 15 15 15 14 14 14 14 14 14 14 14 14 14 14 13 14 15 15 14 15 16 16 16 16 15 15 15 14 14 14
15 14 14 14 14 13 12 13 13 14 14 14 14 14 14 13 14 14 14 14 15 15 16 16 16 16 15 13 14 14 14 14
14 14 14 14 14 14 12 12 12 13 13 14 14 14 13 13 13 13 14 14 15 15 15 15 15 16 15 15 12 12 12 14
13 14 14 14 12 13 12 11 11 11 12 13 13 14 14 13 13 13 14 14 15 15 15 16 15 16 16 15 11 12 13 13
14 13 13 12 12 12 12 11 10 10 11 11 12 13 13 13 12 12 13 14 14 16 16 16 15 15 16 16 16 15 12 12
13 13 12 12 12 13 11 11 11 10 10 10 11 11 12 12 12 13 14 15 16 16 16 17 16 15 16 15 15 15 15 13
13 12 12 12 12 12 11 11 10 10 10 10 10 10 10 10 10 12 14 15 15 16 16 16 16 16 16 16 16 15 14 13
12 12 12 12 12 12 11 11 11 10 10 10 10 10 11 11 12 12 13 14 15 14 15 15 16 16 16 16 16 16 17 16
12 12 12 12 12 11 11 11 11 10 10 10 11 11 11 12 12 12 12 13 13 13 14 16 16 16 16 16 16 16 16 16

GFSFLT2_925_temp_102.txt.gz
Temp
20 20 19 19 18 18 18 18 18 18 18 18 18 18 18 18 18 18 18 18 19 18 17 16 16 16 16 16 16 16 16 15
19 19 19 18 18 18 18 18 18 18 18 18 18 18 18 18 17 17 17 16 17 17 16 16 16 16 16 16 16 16 15 15
19 19 19 18 18 19 18 18 18 18 18 18 18 18 17 17 17 17 17 17 17 17 16 16 16 16 16 15 15 15 15 14
19 19 18 18 18 18 18 17 18 17 17 17 17 17 17 17 16 17 17 17 17 17 16 16 16 15 15 15 15 15 15 14
18 18 18 18 17 17 17 17 18 17 17 17 17 17 17 16 16 16 16 16 17 16 15 15 16 15 15 15 15 15 15 14
18 18 18 17 17 17 17 17 18 17 17 17 16 16 16 16 16 16 15 16 16 16 14 15 16 15 15 15 15 15 14 14
19 18 17 17 17 17 17 17 18 18 17 17 16 16 16 15 15 14 14 14 15 15 14 15 15 15 14 15 14 14 14 14
19 18 18 17 17 17 17 17 17 17 17 17 16 16 15 15 14 14 14 14 14 15 14 15 15 14 14 14 14 14 14 13
19 18 18 17 17 16 16 16 15 14 15 16 15 15 15 15 14 14 13 14 14 14 14 15 15 14 14 14 14 14 13 13
19 18 18 17 17 16 16 15 15 15 14 14 14 15 15 14 14 14 13 13 14 14 14 13 13 14 14 13 14 13 13 13
18 18 18 17 17 16 15 15 15 15 14 14 15 14 14 14 14 14 13 13 13 12 13 14 13 13 13 14 13 14 13 13
18 16 17 17 16 15 15 15 14 15 15 15 14 14 14 14 14 13 13 12 12 12 12 13 14 13 12 12 13 12 12 13
16 15 16 16 14 14 14 14 14 15 15 15 15 14 14 14 13 12 11 11 12 12 12 13 12 12 11 10 10 11 12 12
13 14 15 15 13 13 13 13 13 14 16 15 14 14 14 14 13 12 13 12 12 12 12 11 11 12 12 11 10 11 11 12
13 13 14 13 13 13 12 12 12 13 13 14 14 14 13 13 13 12 12 12 12 12 12 13 12 12 12 13 10 11 11 11
13 13 13 12 13 12 12 12 12 12 12 13 13 14 13 13 13 12 11 12 11 12 13 13 12 12 13 15 15 14 11 10
12 13 12 13 13 12 12 11 12 11 11 12 13 13 13 13 13 12 12 11 11 12 12 13 13 13 14 14 14 14 14 12
13 12 12 12 12 12 11 11 11 11 11 11 12 13 13 13 12 12 12 11 12 13 13 13 13 14 14 15 16 14 13 13
13 12 11 11 11 11 12 12 13 12 10 11 11 11 12 12 12 11 11 11 12 13 13 14 14 14 15 15 16 16 16 15
13 12 12 11 11 11 11 12 11 11 11 10 11 11 11 12 12 12 10 10 11 12 13 14 14 15 15 15 16 15 16 18

GFSFLT2_925_temp_108.txt.gz
Temp
20 19 18 19 19 19 20 20 20 20 19 19 20 20 20 20 19 19 19 19 19 18 18 18 17 18 18 17 17 18 19 18
20 20 19 18 18 18 19 19 19 19 19 19 20 20 20 20 19 19 19 19 18 18 19 18 18 17 17 17 17 18 20 18
21 20 19 19 19 18 18 18 18 18 18 18 19 19 19 19 19 18 19 19 18 18 18 18 18 18 17 16 17 18 19 19
22 21 20 19 20 20 18 18 18 18 18 18 18 19 19 20 18 18 18 18 18 17 17 17 17 15 17 16 17 18 18 18
22 21 20 20 20 21 19 18 19 18 19 19 19 18 18 18 18 18 18 17 17 16 15 15 15 16 15 15 16 17 18 18
22 20 20 20 21 20 21 17 18 17 17 18 17 17 17 17 17 19 18 18 17 16 15 15 14 16 15 16 16 18 18 17
23 18 19 19 19 21 21 20 17 17 17 17 17 17 17 16 16 16 17 17 17 16 15 14 14 14 15 15 16 18 18 18
23 19 18 20 19 17 19 19 19 17 17 17 17 17 17 17 16 16 17 16 16 15 15 14 14 14 15 15 16 17 17 18
23 21 19 20 20 17 18 18 17 17 16 17 17 16 16 16 16 16 16 15 15 15 14 14 14 14 15 16 16 17 17 17
24 22 20 20 20 19 17 16 16 15 16 16 16 16 16 16 16 15 15 15 14 14 13 13 13 13 14 16 16 16 16 16
25 23 20 20 19 19 16 15 16 16 16 15 15 16 15 15 15 14 14 14 14 14 13 13 13 13 14 16 16 16 16 16
24 23 21 20 19 17 16 15 15 16 16 16 15 15 15 15 15 14 14 14 13 12 12 12 12 12 13 15 16 16 16 16
23 23 21 19 17 16 15 15 15 15 15 15 16 15 15 14 14 14 14 13 12 12 12 11 12 12 13 14 15 15 15 14
22 21 20 19 16 15 16 15 15 15 15 15 15 15 14 14 14 14 13 12 12 12 12 12 12 12 13 12 13 13 14 14
21 21 20 19 18 15 16 15 15 14 14 14 14 14 14 14 14 14 13 13 12 11 12 12 12 12 13 15 13 14 14 14
21 20 20 19 18 15 16 16 15 16 15 14 14 14 14 14 14 13 13 13 12 11 11 11 12 12 12 13 16 16 17 14
19 19 19 17 18 15 16 18 18 18 17 16 13 14 14 14 14 13 13 12 12 11 11 11 11 12 12 12 14 15 16 17
19 18 18 16 15 15 16 19 19 17 16 14 13 13 13 13 13 13 12 12 11 11 11 11 11 11 12 12 14 15 15 16
20 18 17 15 14 15 16 18 17 17 17 15 13 13 13 13 13 12 12 11 11 11 11 12 12 12 12 12 13 15 15 16
19 18 17 15 13 14 15 16 17 17 16 15 14 14 14 13 12 12 12 11 11 11 11 11 11 11 11 12 13 14 15 16

GFSFLT2_925_temp_111.txt.gz
Temp
21 19 21 21 21 20 20 20 20 20 19 19 20 20 20 20 20 20 20 19 19 19 19 19 18 18 18 19 19 20 21 19
22 21 20 19 19 20 20 20 20 20 19 19 20 20 20 20 20 20 19 19 19 19 19 18 18 17 18 19 19 19 19 18
23 22 21 21 21 19 19 19 19 19 19 18 19 20 20 19 19 19 19 19 19 19 18 18 18 18 18 18 18 20 18 18
25 23 23 22 21 20 19 19 19 18 19 19 19 20 20 20 20 19 19 19 18 18 18 18 18 17 18 17 18 18 19 18
26 24 23 22 23 23 22 20 20 19 19 19 20 20 20 20 19 18 18 18 18 17 17 16 16 16 17 17 16 17 16 17
26 25 23 23 23 23 24 20 21 20 20 20 19 19 19 19 19 18 18 18 19 18 16 16 15 15 16 17 16 15 15 17
27 25 24 23 22 24 23 21 19 21 20 20 20 20 19 18 19 19 19 19 19 17 16 15 15 15 15 16 15 15 15 17
28 26 23 22 22 23 23 23 21 18 19 19 19 19 19 18 18 18 18 19 17 16 16 15 15 14 14 16 15 16 16 17
28 26 22 21 22 22 22 23 22 21 18 18 18 18 18 18 17 17 18 18 17 16 16 15 15 14 14 15 15 17 18 17
29 27 24 21 22 22 20 21 21 22 20 19 17 17 18 18 18 17 17 16 16 16 15 15 14 14 14 14 15 17 17 17
29 27 25 23 22 23 22 21 21 20 20 17 17 16 17 16 19 18 17 16 15 15 15 15 14 14 13 14 16 17 17 18
28 27 25 23 22 22 22 20 20 19 19 17 17 16 16 17 17 17 16 15 14 14 14 14 14 13 13 14 15 16 17 18
27 26 26 24 22 22 22 18 18 18 20 19 19 17 16 16 16 16 15 14 14 14 13 13 13 13 13 13 14 15 17 18
26 26 25 24 23 23 20 17 16 16 18 19 19 17 17 16 16 15 15 14 13 13 13 12 12 13 13 13 13 14 15 16
25 25 25 24 23 21 17 17 16 16 16 17 17 17 16 16 15 14 14 14 13 13 12 12 12 12 12 14 13 14 14 14
23 24 24 24 23 21 17 17 17 17 16 17 17 17 16 16 15 14 14 13 13 12 12 12 12 13 13 14 15 15 15 14
23 22 23 23 23 21 17 17 18 19 18 18 16 16 15 15 14 14 14 13 13 12 12 12 11 12 13 12 14 14 16 16
22 22 22 22 22 21 18 17 19 21 20 19 17 15 15 14 14 14 13 13 13 12 12 12 11 11 12 12 13 13 16 16
22 22 22 21 20 19 17 17 19 21 21 19 17 16 15 14 14 13 13 13 13 12 12 11 11 11 12 12 13 14 15 15
21 21 22 21 20 17 16 16 18 20 20 19 17 16 16 14 13 13 13 12 12 12 11 11 11 11 12 12 13 13 14 15

GFSFLT2_925_temp_114.txt.gz
Temp
23 23 23 22 22 21 21 21 21 20 20 19 19 20 20 20 20 20 20 20 20 20 19 19 19 18 19 19 20 19 19 18
22 21 22 22 21 21 21 21 21 20 19 19 19 20 20 20 20 20 20 20 19 19 19 19 19 18 19 19 20 19 19 17
22 20 20 20 21 20 20 20 20 20 20 19 19 19 19 19 20 20 20 19 19 19 19 18 18 18 18 18 19 19 19 19
23 22 21 21 21 20 20 20 20 20 19 19 19 19 19 19 19 19 19 19 19 18 18 18 18 18 18 18 18 18 18 17
25 24 23 22 22 21 19 19 19 19 19 19 19 19 20 20 19 19 19 19 18 18 18 18 17 17 18 18 18 17 16 16
26 24 23 22 23 22 21 20 20 19 19 19 19 19 20 19 19 19 18 18 18 18 18 17 16 16 17 17 18 17 17 16
27 26 24 23 23 24 24 22 20 20 20 20 20 20 19 19 19 18 18 18 18 18 17 17 16 15 16 16 17 17 16 15
28 26 24 23 22 23 24 22 21 21 20 20 20 19 19 19 19 18 18 18 18 18 17 16 16 15 15 15 16 16 16 15
28 26 25 23 22 22 23 23 21 21 20 20 20 20 19 19 18 18 18 18 18 17 17 16 16 15 15 15 15 16 15 15
28 27 25 24 23 22 22 23 23 20 20 19 19 19 19 19 19 18 18 17 17 17 16 16 15 15 15 14 15 15 15 15
30 27 24 24 22 22 22 22 22 22 20 19 19 19 18 19 18 18 18 17 16 16 16 16 15 14 14 14 14 15 15 15
30 28 25 23 22 22 22 21 21 21 21 20 19 18 17 18 18 18 18 17 16 16 15 15 15 15 14 14 14 14 15 16
28 28 26 24 23 22 22 22 21 21 20 20 18 17 17 17 17 17 18 17 16 16 14 14 14 14 14 13 13 14 14 16
27 27 26 25 23 22 22 22 21 20 20 20 19 17 17 16 16 17 17 16 15 14 14 13 13 13 14 13 13 13 14 15
26 26 26 26 25 24 23 20 18 18 18 19 19 19 18 17 16 17 17 16 15 14 13 13 13 13 13 14 13 13 13 15
24 24 24 25 25 24 21 18 17 17 17 17 18 18 18 17 17 16 15 15 14 14 14 13 13 13 13 13 13 14 13 13
24 23 23 23 24 24 20 18 19 18 16 16 17 18 17 17 16 15 14 14 14 14 13 13 12 13 13 12 13 13 13 14
23 23 23 23 23 23 21 18 18 18 17 16 16 17 17 17 16 16 14 14 14 13 13 12 12 12 13 13 13 13 13 14
22 22 21 22 22 22 22 19 17 18 19 18 17 16 16 16 15 14 14 14 14 13 13 12 12 12 12 12 12 13 13 13
18 18 18 20 19 21 21 20 17 18 18 20 17 16 15 15 14 14 14 13 13 13 12 12 12 11 11 12 12 12 13 14

GFSFLT2_925_temp_117.txt.gz
Temp
24 23 23 23 23 23 22 21 21 21 21 20 20 20 20 20 20 20 20 20 20 19 19 20 19 19 19 19 19 19 18 18
23 22 23 23 22 22 22 22 21 22 20 19 19 20 20 20 20 20 20 20 19 19 19 19 19 19 19 19 18 18 18 17
23 22 23 23 22 22 22 21 21 21 20 19 19 20 20 19 20 20 20 19 19 19 19 19 19 19 19 18 18 18 18 18
22 22 22 22 21 22 21 21 21 20 20 19 19 20 20 19 20 19 19 19 19 19 19 19 18 18 19 19 18 17 17 17
22 22 22 22 21 21 21 20 20 20 20 19 19 19 19 19 20 19 19 19 19 18 18 18 18 18 18 18 18 18 17 17
23 22 22 21 21 21 21 20 20 20 20 19 19 19 19 19 19 19 19 19 18 18 18 18 18 18 18 18 17 17 17 17
24 24 22 22 22 21 22 21 20 20 19 19 19 19 19 19 19 19 19 18 18 18 18 18 17 17 17 17 17 17 17 17
25 24 24 23 23 22 22 21 21 20 20 20 20 19 19 19 19 19 19 18 18 18 17 17 17 17 16 16 16 17 16 16
24 25 24 23 23 23 23 22 21 21 20 20 20 20 19 19 19 19 18 18 18 17 17 17 16 17 16 15 15 15 16 16
26 24 23 23 23 23 23 23 22 21 21 20 20 20 19 19 19 18 18 18 18 18 17 16 16 16 15 15 15 15 15 16
26 24 24 23 23 23 23 22 22 21 21 21 20 19 19 19 18 18 18 18 17 17 17 16 16 15 15 14 15 14 14 14
28 25 25 24 23 22 22 23 22 21 21 20 20 20 19 19 18 18 18 18 17 17 16 16 15 15 15 14 14 14 14 14
27 23 22 22 22 22 22 22 22 22 21 21 19 19 19 19 18 19 18 18 17 16 15 16 15 14 14 14 14 14 14 14
26 24 23 22 22 22 21 22 22 21 21 21 20 19 18 18 18 18 17 17 17 16 16 15 14 15 14 14 13 13 13 13
25 25 23 23 23 23 21 21 21 20 20 20 19 19 19 18 18 17 17 17 17 16 15 14 13 14 14 14 13 13 13 13
24 24 24 23 22 22 22 21 19 20 19 20 19 18 18 19 18 17 17 16 17 17 15 14 13 13 13 14 14 14 13 12
23 23 23 23 23 22 21 21 21 20 18 18 19 19 18 17 17 17 16 16 16 17 16 13 13 13 13 13 12 13 14 13
18 19 19 20 20 21 21 20 20 18 17 17 17 18 18 17 17 17 16 16 15 14 14 13 13 13 13 13 13 13 13 14
16 16 16 18 18 18 18 19 20 18 18 16 16 17 17 16 16 16 16 15 14 13 14 13 13 13 13 12 12 13 13 14
15 15 14 14 15 15 16 17 17 18 18 17 16 16 16 17 16 15 15 15 14 13 13 13 13 12 12 12 12 12 13 13

GFSFLT2_925_temp_120.txt.gz
Temp
22 22 23 23 23 23 23 22 22 21 21 21 21 21 21 20 20 20 20 20 19 19 20 20 19 19 19 19 18 18 18 18
23 22 22 22 22 23 23 22 22 21 21 21 21 21 21 20 20 20 20 20 19 19 20 20 19 19 19 18 18 18 18 18
23 22 22 21 22 22 22 22 21 21 20 20 20 20 20 20 20 20 20 19 19 19 19 20 19 19 19 18 18 17 17 18
23 22 22 21 21 21 21 21 21 21 20 20 20 20 19 19 20 19 19 19 19 19 19 19 19 18 19 18 17 18 18 18
22 22 21 21 21 21 21 21 20 20 20 20 21 19 19 19 19 19 19 19 19 19 18 19 19 18 18 18 17 17 18 17
23 22 22 21 21 21 21 21 21 21 20 20 20 19 19 19 19 19 19 19 19 18 18 19 19 18 18 18 17 16 17 17
24 23 23 22 21 21 21 21 21 21 21 20 20 19 19 19 19 19 19 18 18 18 18 18 18 18 18 17 17 16 17 17
24 23 24 24 22 22 22 22 21 21 21 20 20 19 19 19 19 19 19 18 18 18 18 18 18 18 17 17 17 17 16 17
22 23 22 22 22 21 22 22 22 21 21 20 20 19 19 19 19 19 19 19 18 18 18 17 17 17 17 16 16 16 16 16
23 22 21 22 22 22 22 22 22 21 21 21 20 20 19 19 19 19 19 18 18 17 17 17 17 17 16 16 15 15 14 15
23 23 22 22 22 22 22 22 21 21 21 21 20 20 19 19 19 19 18 18 18 17 17 17 16 16 16 15 14 14 14 14
25 23 23 22 21 21 21 21 21 21 21 21 20 20 20 19 19 19 18 18 17 17 17 16 16 15 14 14 14 14 14 14
25 23 23 21 20 20 19 20 21 21 21 21 20 20 20 19 19 19 18 18 17 17 17 16 15 15 14 14 14 14 14 14
24 22 21 21 20 20 20 20 21 21 21 21 20 20 19 19 19 18 18 18 17 17 16 15 15 15 14 14 13 13 13 13
22 21 21 20 20 20 21 21 20 19 20 20 20 20 19 19 19 19 19 18 17 17 16 16 14 14 14 15 13 14 13 13
21 20 20 20 20 20 20 22 20 21 20 20 21 20 19 19 19 19 19 17 17 16 17 16 15 14 14 14 14 14 13 13
18 18 17 18 19 19 20 20 19 20 20 19 19 20 19 19 18 18 18 17 16 16 16 16 16 14 13 13 13 13 13 13
17 17 16 16 16 16 16 16 16 17 18 17 18 19 19 18 18 18 18 18 17 16 16 17 16 14 14 13 14 14 13 13
14 15 13 14 15 14 14 15 15 15 17 18 17 17 17 17 18 16 16 17 17 16 15 14 14 14 13 13 13 13 14 14
11 11 11 12 13 12 12 13 13 13 14 16 18 19 20 19 18 16 16 16 16 15 16 14 13 13 12 13 13 12 13 13